sat.trackr.live / text

‹ back to catalog

STARLINK-32391

NORAD 61855 · 2024-202L

PAYLOAD ACTIVE UNKNOWN

§ Identity

Operator
Country
US
Launch date
2024-11-07
Launch site
AFETR
Launch vehicle
Mass (kg)
RCS (m²)

Purposes: comms

External: N2YO · Heavens-Above · Gunter

§ Orbital elements

Epoch: 2026-09-21T13:09:23.948640Z

Period
94.27 min
Inclination
43.0002°
Eccentricity
0.0001812
Mean motion
15.27583494 rev/d
Perigee alt
481.8 km
Apogee alt
484.3 km
Semi-major
6,861.2 km
B*
7.2752e-5
RAAN
211.7099°
Arg perigee
261.3545°
Mean anomaly
98.7101°
Rev number
10,528

§ Raw data

STARLINK-323911 61855U 24202L   26264.54819385  .00001740  00000+0  72752-4 0  99962 61855  43.0002 211.7099 0001812 261.3545  98.7101 15.27583494105283

JSON: /api/v1/satellites/61855 · /tle

For live sub-satellite position, see the globe view (requires WebGL).

§ Visibility from observer

Set your observer location to see the next 7 days of passes ≥ 10°. The values pass through the URL so the page stays shareable.

No JS? Fill the form by hand. The geolocation button needs JavaScript.